Location: Rostock
(54.0884°N, 12.1234°E)
Time: 23:29:51
(UTC+01:00)

ISS - Pass Details

Date: 13 November 2017
Orbit: 402 x 407 km, 51.6° (Epoch: 24 November)

Event Time Altitude Azimuth Distance (km) Brightness Sun altitude
Exits shadow 05:02:31 31° 152° (SSE) 728 -2.4 -22.3°
Drops below altitude 10° 05:04:38 10° 124° (SE) 1,455 -0.3 -21.9°
Sets 05:06:46 0° 117° (ESE) 2,312 1.1 -21.6°
